GFSFLT2_sfc_rhum_000.txt.gz
RH
50 50 54 58 55 56 58 63 59 56 55 55 54 54 57 54 52 52 53 54 55 58 56 56 54 55 54
67 70 70 64 68 83 65 50 51 53 56 56 53 52 52 52 53 53 66 70 60 57 57 60 64 64 63
70 61 62 80 73 58 52 49 42 51 55 57 57 57 59 61 75 61 55 56 55 55 54 55 55 55 56
83 79 93 70 63 61 58 57 59 50 59 62 63 62 62 59 58 58 59 59 59 58 56 59 64 68 66
78 82 82 66 66 64 67 64 68 86 66 60 64 63 60 62 61 62 63 63 62 72 65 62 61 67 71
95 83 72 68 68 71 77 95 81 59 67 69 63 66 66 65 65 62 60 58 64 58 64 67 64 73 63
74 73 74 75 94 90 84 84 86 73 76 83 69 73 65 55 63 64 62 62 62 69 74 70 69 68 63
60 70 82 67 61 64 89 92 86 73 69 90 70 72 65 65 68 68 67 66 68 76 82 91 90 91 88
70 61 61 62 65 82 93 93 87 73 64 78 78 82 76 73 67 70 69 64 64 72 78 79 77 78 75
60 60 62 64 68 74 95 96 93 91 65 88 85 85 91 70 78 72 71 71 70 73 77 83 87 88 93
66 67 67 68 68 74 89 97 95 94 74 87 95 91 92 91 73 67 69 79 77 78 90 97 97 97 97
75 72 77 86 86 86 88 93 92 96 92 95 96 97 95 92 86 68 70 78 84 92 96 97 97 98 97
80 86 87 88 89 90 89 86 89 90 95 96 97 95 96 94 93 89 88 81 87 97 97 98 98 98 99
87 80 74 82 87 91 94 88 94 86 82 89 96 97 96 94 96 93 91 96 89 95 98 98 99 98 98
86 84 76 80 86 84 93 93 94 94 91 86 88 90 92 97 96 94 92 94 97 98 99 99 99 98 98
88 89 91 92 91 90 90 94 95 93 94 93 94 92 92 91 94 94 96 97 97 99 99 99 98 98 97
90 94 94 93 89 91 90 92 92 94 94 95 96 97 96 96 93 96 98 98 98 97 98 98 99 98 97

GFSFLT2_sfc_rhum_003.txt.gz
RH
62 61 66 65 59 59 63 73 66 60 55 54 52 53 54 55 59 62 61 63 56 56 56 60 60 62 64
71 60 57 57 60 88 71 50 50 50 55 54 55 55 56 61 60 61 59 66 74 84 78 68 67 63 63
71 64 68 72 71 74 57 53 45 52 56 60 60 62 59 57 58 61 67 60 58 61 62 60 58 56 57
84 88 71 78 82 65 60 58 61 50 58 70 61 58 60 60 58 57 57 58 58 58 58 58 57 59 57
78 89 78 67 65 65 68 69 76 85 64 59 59 61 62 63 60 61 61 61 64 68 68 66 66 69 70
95 77 69 68 67 77 89 86 85 61 69 71 64 67 66 65 66 65 62 61 62 63 64 65 65 75 66
67 69 72 76 94 92 89 92 85 71 78 82 68 72 65 57 66 66 66 64 64 66 72 71 70 67 64
60 70 77 66 61 64 83 93 86 70 65 91 70 73 66 65 70 71 69 67 66 66 66 66 74 83 82
69 64 62 64 66 79 93 93 85 69 62 76 76 78 73 72 68 71 68 64 61 64 65 66 71 70 72
61 63 64 65 68 69 92 96 93 90 64 88 84 83 90 67 76 68 68 68 68 68 68 77 78 87 93
70 69 66 64 66 74 88 97 95 94 74 85 94 91 91 89 71 65 67 74 78 73 77 84 93 96 97
77 72 76 84 84 85 86 92 94 96 93 96 96 96 95 92 87 68 70 77 83 87 89 92 97 98 97
81 86 85 85 86 86 86 85 85 85 91 95 97 95 96 95 93 88 89 82 86 94 96 97 97 98 97
85 78 74 82 83 83 91 87 94 84 80 85 96 97 96 92 96 94 92 96 90 91 96 98 98 99 99
85 84 78 81 85 82 90 92 92 92 90 86 86 89 92 96 96 93 94 94 97 98 98 97 99 98 98
89 90 91 92 90 87 87 91 95 92 93 92 93 91 86 90 91 95 95 98 98 98 98 98 98 97 96
91 94 94 92 89 90 90 91 90 92 94 95 96 96 95 95 92 92 98 98 98 97 98 98 99 98 98

GFSFLT2_sfc_rhum_006.txt.gz
RH
63 63 62 55 53 56 59 61 67 84 63 55 54 54 56 56 56 59 64 62 65 65 64 64 64 68 63
77 66 60 59 62 73 62 64 68 56 58 56 56 56 57 60 67 65 67 62 65 62 66 71 70 70 68
73 65 65 74 71 74 75 64 48 53 57 59 60 61 63 64 60 61 62 65 71 65 69 66 64 64 67
74 79 84 85 72 64 60 59 61 52 62 64 62 62 62 61 61 60 60 60 59 59 61 61 60 61 60
94 88 74 63 65 64 68 68 71 65 62 60 61 62 62 65 63 64 65 65 64 69 69 71 72 68 62
82 71 66 66 65 76 91 85 87 62 68 77 68 66 63 62 65 66 65 64 64 64 67 67 67 67 66
67 68 70 76 96 92 89 89 83 71 76 87 67 69 60 54 65 66 67 66 67 70 74 71 67 67 68
64 73 81 67 64 66 83 92 82 67 63 91 70 71 62 60 68 69 68 67 68 73 72 71 72 77 76
74 66 65 67 68 75 92 93 84 69 62 73 71 74 69 68 64 68 64 62 63 65 65 66 67 66 63
62 65 67 69 69 68 84 96 93 91 62 88 83 82 90 64 72 65 67 68 67 68 69 70 69 71 87
68 69 68 66 68 76 83 94 95 94 72 85 94 90 92 91 69 65 64 70 74 75 78 82 89 93 96
74 73 78 85 85 85 86 88 88 96 93 95 96 96 95 91 86 66 67 75 84 91 89 90 94 97 98
81 86 86 86 87 86 85 85 84 84 86 86 95 95 96 95 93 89 91 83 85 94 95 96 96 95 97
84 78 74 83 84 83 93 87 92 84 79 84 88 97 96 92 96 94 93 97 93 92 96 97 98 97 98
86 83 78 81 84 83 91 93 93 90 87 83 84 88 91 97 96 90 94 95 97 98 98 97 93 98 98
90 90 90 91 92 88 88 92 94 89 92 89 91 90 81 88 87 95 92 95 97 98 98 98 95 96 97
92 93 94 92 90 91 91 92 91 90 90 90 95 96 94 93 86 73 98 97 97 95 98 97 98 98 98

GFSFLT2_sfc_rhum_009.txt.gz
RH
48 47 46 47 41 43 48 50 51 62 60 59 59 56 57 60 62 61 61 64 65 68 71 70 70 71 68
58 54 48 45 48 55 55 45 44 52 59 58 58 58 59 61 65 68 70 71 69 65 70 68 67 66 66
62 51 54 59 68 52 45 41 36 51 57 60 61 63 63 64 63 63 63 66 64 63 69 72 70 71 71
71 79 65 55 53 50 50 49 50 45 55 58 61 60 62 62 62 62 61 62 62 62 62 63 64 64 62
77 68 61 52 53 53 58 61 60 57 54 52 50 51 54 61 60 63 64 65 65 65 69 68 68 69 66
77 58 53 53 55 68 76 78 80 51 55 62 55 55 52 50 61 64 65 65 64 64 66 68 68 65 68
56 54 59 64 92 90 81 75 73 62 65 72 55 58 50 45 62 64 66 66 67 71 75 73 69 68 68
54 63 78 66 62 64 75 85 71 57 54 81 56 58 51 51 64 66 67 67 67 67 69 68 68 72 74
72 68 65 66 67 71 85 89 79 61 53 63 59 61 59 60 54 62 63 65 67 69 68 67 66 65 63
51 52 56 57 67 60 80 95 90 88 50 81 71 69 80 48 51 56 56 63 68 70 73 75 74 73 84
55 55 55 54 55 63 74 94 95 92 64 82 90 85 86 87 62 57 58 67 75 73 77 83 94 96 95
61 61 69 79 80 81 82 86 84 94 90 95 96 94 93 88 81 61 65 72 80 84 85 84 85 87 97
70 80 80 81 86 85 85 84 84 84 85 86 94 94 93 93 92 85 85 80 85 92 95 96 95 91 95
74 67 65 79 80 79 87 83 86 81 80 83 90 97 95 88 94 91 87 96 89 95 98 97 97 97 97
76 74 69 74 79 78 84 87 88 87 84 79 85 87 88 94 93 83 80 86 90 98 98 97 90 97 97
84 86 87 88 88 85 84 87 90 86 87 86 86 88 82 82 67 85 88 88 89 95 98 97 91 89 94
89 90 92 92 88 89 87 87 88 86 88 87 93 94 91 91 75 68 95 91 94 87 95 97 98 96 98

GFSFLT2_sfc_rhum_012.txt.gz
RH
34 33 36 38 35 36 39 40 42 53 53 54 56 57 59 61 63 64 63 65 64 66 66 68 68 70 74
44 42 41 40 43 43 37 30 33 40 51 55 58 59 60 60 62 64 66 67 69 72 68 70 69 69 72
50 45 49 51 50 42 37 35 31 46 51 54 58 60 62 62 62 61 62 63 66 67 64 66 65 66 64
59 72 62 50 46 41 42 43 45 40 48 52 57 57 59 59 60 60 61 62 64 65 65 65 66 68 68
90 68 59 45 42 44 50 56 53 52 50 47 44 46 50 56 55 58 58 60 63 66 70 70 68 67 67
78 59 45 42 45 56 73 74 76 49 50 55 50 50 48 47 56 58 60 62 64 65 68 73 71 68 68
57 45 48 52 79 92 77 73 69 57 60 66 49 51 46 40 57 60 62 65 68 70 73 72 71 72 70
46 50 65 70 64 60 70 77 68 55 52 74 51 53 46 47 60 62 63 65 67 71 71 70 70 68 70
62 68 63 61 61 66 84 87 78 60 50 58 53 58 56 55 48 50 55 64 74 86 87 82 77 73 69
48 46 49 48 58 54 75 95 89 87 50 74 69 66 76 47 46 53 54 61 63 70 80 85 84 84 92
46 46 46 47 49 58 71 92 95 91 61 77 90 83 86 84 59 56 57 59 62 67 74 76 78 93 97
53 53 61 74 75 78 80 85 83 93 86 91 96 93 93 87 80 60 61 67 77 84 90 87 85 81 82
64 75 76 75 83 83 84 82 83 83 84 85 92 94 93 93 89 84 81 77 82 91 95 97 97 97 97
66 62 59 74 75 75 82 80 84 80 80 84 89 96 95 89 90 87 86 94 84 85 94 94 94 96 97
73 71 66 70 76 75 80 85 87 85 82 78 83 87 89 93 94 84 78 78 85 92 98 96 88 92 97
81 83 86 86 85 82 82 86 88 82 83 81 86 86 82 80 71 82 79 83 87 90 97 98 90 86 91
89 89 91 90 86 86 85 86 86 84 85 86 91 94 94 89 73 68 85 88 91 90 87 97 97 95 97

GFSFLT2_sfc_rhum_015.txt.gz
RH
40 38 40 41 38 41 46 42 42 48 49 50 51 54 56 58 60 63 63 63 64 67 66 70 69 68 64
48 47 46 42 45 54 45 34 39 40 48 51 54 55 57 58 59 61 63 62 64 67 70 71 74 69 71
55 49 50 52 64 50 45 42 33 45 49 53 55 57 58 58 58 58 58 58 61 62 68 70 66 67 71
64 71 71 71 55 52 47 47 50 41 51 53 56 56 57 56 57 58 59 60 60 61 62 67 67 66 68
80 81 70 57 55 49 53 58 59 64 57 55 52 52 54 57 56 57 57 59 60 62 67 69 70 71 69
94 72 64 55 50 62 73 85 88 56 60 60 57 59 56 54 55 56 58 60 61 64 67 70 70 67 67
62 56 55 56 74 84 85 79 75 65 65 76 64 62 54 45 56 58 61 63 64 65 66 68 70 71 73
49 53 61 68 90 87 72 78 70 65 62 84 62 63 55 55 61 62 62 62 59 60 66 75 86 84 78
55 62 63 58 57 61 82 87 84 69 61 70 67 69 65 65 58 54 54 57 64 64 66 67 68 80 89
62 54 51 51 54 56 73 96 92 90 62 81 84 78 87 59 59 60 63 62 63 65 65 65 69 85 96
56 52 52 52 55 65 74 90 96 93 70 79 94 89 92 89 69 64 64 66 68 67 70 72 72 80 97
58 60 67 76 78 79 79 82 84 95 87 89 96 96 95 92 85 66 66 70 79 83 84 79 77 80 84
70 79 79 78 81 81 82 81 82 81 81 83 91 95 96 94 92 88 81 75 82 88 87 95 97 97 97
76 71 68 79 79 79 86 83 89 84 78 82 86 90 96 93 92 92 84 89 85 85 84 87 87 86 92
82 83 75 78 82 80 84 90 93 87 84 80 80 82 85 94 96 86 83 85 83 82 84 91 86 85 90
87 88 91 90 88 87 85 89 93 89 89 85 86 92 84 79 71 83 79 82 82 84 86 97 92 82 79
93 91 93 93 87 90 90 91 90 86 85 85 92 96 95 91 73 66 91 90 89 91 86 92 97 88 87

GFSFLT2_sfc_rhum_018.txt.gz
RH
49 51 56 56 50 50 47 58 54 54 52 52 50 52 55 56 59 59 60 64 67 68 68 70 73 69 66
59 58 62 56 53 63 60 50 46 48 50 50 53 55 57 58 59 60 62 63 63 65 69 66 64 67 67
68 62 61 64 72 81 60 49 43 46 50 54 56 60 59 59 58 58 58 59 59 60 62 64 65 68 67
74 81 79 73 80 68 62 58 56 48 53 61 62 60 61 58 60 61 61 60 60 60 60 61 63 64 65
82 78 90 70 72 68 62 61 62 66 73 62 61 59 60 62 61 62 61 61 59 60 62 63 63 64 66
95 83 70 72 70 66 71 80 87 69 77 68 63 64 64 64 62 61 61 61 59 62 64 64 65 69 69
73 68 63 64 80 86 87 94 90 71 73 80 66 70 63 53 63 64 62 65 66 65 63 65 65 68 71
58 59 67 63 74 88 81 79 74 69 71 91 70 70 64 64 66 67 67 65 60 59 61 64 66 66 66
58 63 65 62 58 61 81 86 82 72 68 76 75 78 74 70 65 64 60 59 65 65 67 66 66 66 67
70 66 62 63 59 62 81 95 92 90 67 92 85 86 88 63 68 64 68 67 67 67 67 67 68 72 83
65 63 60 61 63 68 78 90 96 93 70 79 94 90 93 89 72 66 66 67 68 68 70 73 74 76 89
65 67 75 82 82 82 81 84 84 90 86 92 96 96 95 92 86 66 68 70 79 84 83 79 79 78 74
83 87 84 83 85 85 84 84 86 84 83 84 92 94 96 95 93 89 81 78 81 89 88 86 86 86 89
80 79 77 85 85 83 92 88 92 86 79 82 87 91 95 93 93 92 85 93 83 83 84 86 81 80 83
86 87 82 82 85 82 87 92 95 89 87 81 81 85 87 91 95 87 84 85 86 86 86 88 84 84 83
90 91 93 92 90 89 87 91 94 89 89 86 86 90 85 82 75 87 90 89 87 86 83 92 90 82 78
93 92 93 94 88 90 90 91 92 88 87 87 94 96 95 91 74 66 91 93 91 92 88 88 93 90 85

GFSFLT2_sfc_rhum_021.txt.gz
RH
60 62 67 65 60 56 54 56 63 61 56 55 54 53 55 56 57 58 59 61 65 65 70 70 69 69 69
72 70 69 69 61 65 60 57 62 54 55 53 54 56 57 59 60 59 59 60 65 68 65 63 63 66 70
77 70 70 70 76 75 80 64 50 53 53 56 58 62 64 62 61 61 60 62 62 61 61 64 66 66 66
82 84 79 72 84 76 71 68 60 46 53 59 64 64 62 62 63 63 63 64 65 63 63 66 68 68 67
92 85 86 76 72 71 70 63 63 67 69 72 71 63 64 65 63 65 67 66 64 63 65 66 68 69 71
93 81 78 74 77 67 73 81 87 69 84 72 67 68 66 66 66 65 64 66 66 66 67 66 66 66 66
83 80 78 67 79 86 91 96 86 73 75 79 69 72 65 57 65 66 68 68 67 65 64 66 65 66 67
74 70 71 68 78 78 73 78 73 68 68 86 69 71 65 67 68 68 68 67 65 62 62 65 67 65 66
60 64 66 63 61 67 84 88 85 72 65 77 73 79 74 71 66 67 62 62 64 67 67 68 67 66 66
76 70 62 68 63 67 82 94 94 92 68 91 83 83 89 66 67 66 68 68 68 68 67 67 68 67 77
63 63 63 65 68 72 80 93 95 94 72 79 95 90 92 91 74 68 68 68 69 68 69 71 72 74 84
67 72 80 86 86 84 84 88 88 92 85 90 96 95 95 92 86 68 69 71 78 84 85 80 78 76 74
79 86 86 87 88 88 87 86 88 86 85 86 92 93 96 94 92 88 82 77 81 87 92 89 86 85 90
82 79 77 86 86 85 90 87 92 86 79 82 89 92 96 94 93 92 84 93 84 84 85 84 82 82 86
87 82 80 83 86 84 87 91 95 90 87 81 82 86 89 93 95 87 86 86 86 86 88 91 85 84 82
90 91 92 92 90 88 87 92 94 89 89 86 87 90 86 82 82 92 90 90 87 87 88 95 92 83 77
93 93 93 93 88 91 89 91 91 88 87 87 96 96 95 91 72 66 94 94 90 90 88 90 95 89 83

GFSFLT2_sfc_rhum_024.txt.gz
RH
66 66 74 72 65 65 63 63 65 63 63 60 58 56 57 58 58 59 59 61 64 65 65 68 66 66 67
77 81 79 76 74 74 66 59 66 66 64 59 58 58 59 61 62 60 60 59 60 62 62 62 63 63 63
80 84 84 81 78 81 84 77 62 60 58 59 60 63 64 63 62 62 62 63 63 63 62 61 62 66 66
88 93 94 81 89 90 73 68 64 51 56 61 65 65 64 65 65 64 65 65 66 66 64 64 67 68 70
90 96 86 76 78 74 76 68 67 70 71 75 75 78 69 68 66 66 67 69 65 65 65 65 66 69 71
98 90 84 81 74 77 77 86 89 70 86 72 69 70 67 68 69 68 67 65 66 64 65 68 69 70 69
83 84 85 79 82 89 91 94 86 75 74 79 68 71 66 59 66 66 67 68 68 68 64 64 66 69 72
82 81 80 75 86 82 76 82 76 69 68 88 68 70 65 66 68 69 70 68 68 66 64 63 64 63 63
61 64 66 65 61 71 88 91 86 74 67 77 77 75 70 69 66 70 66 64 63 65 67 67 66 65 64
71 64 62 68 66 71 86 95 94 93 72 96 81 82 87 78 68 76 68 68 69 70 69 68 68 65 74
64 65 65 69 72 76 81 94 95 94 72 83 94 90 93 92 74 69 69 68 70 69 70 70 71 73 84
71 74 80 86 87 87 85 88 89 93 86 91 96 95 95 92 87 68 69 71 77 81 84 80 77 76 73
83 87 88 88 89 90 89 88 90 88 87 88 96 95 96 94 92 88 85 77 81 86 87 90 92 90 92
84 80 76 86 88 86 92 89 92 86 80 83 88 94 95 93 93 92 85 93 84 85 87 87 86 85 86
88 83 77 82 87 86 89 91 95 90 87 81 82 86 89 93 95 87 85 86 86 88 89 92 87 85 83
92 93 92 92 92 88 87 92 94 89 90 86 86 89 85 81 81 92 89 90 86 86 90 97 92 83 79
94 94 94 94 89 91 90 92 91 88 88 87 93 96 95 91 72 64 94 95 91 89 88 89 93 86 83

GFSFLT2_sfc_rhum_027.txt.gz
RH
69 66 72 73 69 72 71 71 71 66 65 64 63 61 60 59 59 59 59 60 66 66 68 66 67 64 64
79 81 82 79 81 82 67 60 68 66 68 64 62 60 61 61 61 62 64 66 63 60 61 61 60 63 64
82 86 88 87 87 85 87 85 65 63 62 62 62 64 65 63 61 62 62 63 62 62 64 64 62 61 62
86 94 95 88 94 92 76 69 69 56 60 64 67 65 64 65 67 67 66 66 67 66 66 64 62 66 67
92 98 95 88 82 77 81 76 74 73 74 77 81 74 72 69 67 67 68 70 70 68 65 64 63 68 69
98 98 93 86 82 82 84 90 88 74 85 74 72 68 66 67 69 69 69 68 67 67 62 66 66 69 71
85 86 86 80 84 90 91 94 86 73 77 81 68 70 66 59 67 67 67 68 68 68 65 64 62 66 68
83 81 83 78 85 94 86 84 78 72 75 88 67 71 65 66 70 69 69 69 68 68 67 64 63 64 65
61 64 67 65 62 71 90 94 88 75 68 77 78 75 68 68 64 69 66 65 64 64 65 65 64 65 64
74 64 63 68 66 73 91 96 94 92 73 95 80 83 91 78 73 75 65 68 69 70 70 68 68 66 74
67 67 68 71 74 78 82 96 96 94 72 81 96 90 93 91 75 68 67 67 69 69 71 71 71 73 84
73 76 82 88 88 88 86 89 90 94 86 91 96 96 95 92 87 66 68 71 76 79 82 80 78 77 74
85 89 89 90 91 91 90 89 91 90 88 89 95 94 96 94 92 88 85 77 80 86 87 89 90 88 94
85 82 79 88 89 88 93 89 92 86 82 84 89 93 95 93 93 92 85 93 85 85 87 87 86 86 89
90 86 81 85 88 86 90 92 95 91 88 82 83 86 88 94 95 86 84 86 85 87 90 91 86 86 86
94 94 94 94 92 89 90 94 94 90 90 86 87 90 84 80 80 92 90 90 87 87 89 96 91 83 80
96 95 95 94 91 93 92 93 92 89 89 88 94 96 95 90 70 62 92 95 94 94 88 88 92 86 81

GFSFLT2_sfc_rhum_030.txt.gz
RH
68 66 69 69 69 74 76 78 77 66 65 64 65 63 62 61 61 59 60 60 62 63 66 69 67 66 66
76 77 80 78 80 85 70 61 70 68 69 65 64 63 64 63 62 60 61 62 63 63 64 65 67 62 60
81 86 88 89 89 88 89 88 74 67 65 66 65 66 67 65 63 62 62 62 63 62 62 61 61 62 62
88 94 93 88 94 94 86 78 73 61 65 67 67 66 65 66 67 68 67 67 67 67 65 64 64 64 62
92 97 96 96 90 81 85 80 80 78 77 80 81 78 72 71 68 67 68 70 70 68 65 65 66 68 68
98 94 94 92 94 89 88 93 89 77 90 74 71 71 67 68 69 69 68 68 68 68 66 62 66 66 71
92 91 87 86 89 93 94 94 91 77 78 82 71 72 65 60 66 67 68 68 69 69 68 66 64 65 67
81 82 86 84 87 91 90 88 83 74 78 92 67 69 64 66 69 69 69 68 67 66 67 65 63 64 67
61 65 66 65 62 74 92 96 88 75 70 80 78 75 67 67 64 68 65 63 63 64 66 67 68 66 64
76 66 65 69 67 75 95 98 95 94 76 93 81 82 94 77 69 78 66 68 69 70 70 69 69 68 74
71 70 70 74 76 80 83 98 96 94 72 82 98 90 92 91 74 66 66 66 68 68 70 71 72 73 84
76 78 84 90 90 90 87 90 92 94 86 91 97 97 94 91 86 66 68 70 75 79 82 80 78 78 75
87 92 93 92 92 92 91 91 92 91 89 90 96 94 95 94 92 86 84 75 79 85 86 89 88 87 93
88 84 81 95 91 89 95 91 94 88 87 88 91 94 95 93 93 91 84 94 84 85 87 87 85 85 89
91 89 83 86 89 89 93 94 96 92 89 83 88 89 89 93 95 86 84 85 85 87 89 91 85 84 85
95 96 95 95 94 91 91 94 95 91 91 88 89 91 84 79 77 91 91 91 87 86 88 96 91 83 80
97 97 96 96 93 93 92 93 92 90 90 90 94 95 95 92 71 62 92 95 94 89 86 88 92 87 81

GFSFLT2_sfc_rhum_036.txt.gz
RH
58 59 65 65 50 40 41 39 39 49 54 58 60 64 65 64 64 64 63 62 61 61 60 60 66 63 67
90 94 90 75 64 52 43 40 40 46 55 61 64 65 65 66 66 65 64 62 61 61 61 61 60 60 60
94 74 77 74 78 60 49 43 39 50 51 53 58 61 64 66 65 64 64 64 64 64 64 65 64 64 63
73 72 78 75 71 62 52 44 43 35 45 53 58 61 65 65 65 66 67 68 68 68 67 66 65 65 64
82 87 81 61 51 48 51 47 45 48 49 45 43 43 45 51 53 58 60 62 65 68 68 67 65 64 64
87 70 51 48 48 50 55 62 68 49 48 50 45 46 44 43 51 56 61 65 66 67 68 67 66 64 63
63 53 52 50 65 78 68 71 73 57 53 56 47 48 43 37 52 56 60 64 67 68 68 67 66 64 65
54 52 53 51 56 74 73 70 55 48 47 69 47 47 42 42 52 56 58 62 64 66 67 66 65 64 63
60 60 63 63 61 58 70 76 70 56 47 54 50 50 46 47 44 51 55 59 62 65 66 67 67 68 65
46 48 49 44 54 56 66 84 82 81 48 66 59 59 75 47 44 45 47 54 58 61 64 66 67 64 69
46 39 40 46 47 50 56 80 89 88 59 72 82 76 81 79 55 50 51 51 52 54 59 63 65 68 80
41 46 53 66 70 71 71 76 74 88 81 89 95 89 91 87 81 56 55 59 66 71 74 71 71 71 71
54 65 70 72 82 82 86 81 86 87 85 90 91 90 91 94 89 81 78 68 74 82 84 83 81 78 82
59 56 56 69 71 72 79 76 81 78 89 91 92 93 92 91 91 87 81 92 76 79 82 82 77 72 79
66 66 62 65 70 71 76 81 89 83 80 74 84 86 88 94 93 80 76 76 81 84 86 90 82 79 76
78 79 81 83 82 80 80 81 83 80 81 78 80 84 82 79 76 84 81 83 82 84 85 92 88 81 71
84 87 86 86 86 84 82 82 85 81 79 82 90 93 94 90 69 64 82 82 83 84 84 85 89 85 78

GFSFLT2_sfc_rhum_039.txt.gz
RH
83 81 80 83 83 79 72 60 50 53 51 54 57 59 60 62 63 63 63 63 62 62 61 59 58 57 64
97 99 99 99 98 90 71 52 54 53 60 63 62 61 61 63 64 64 64 64 63 62 62 61 60 60 60
98 97 95 94 84 73 69 64 54 54 51 50 48 52 58 62 63 64 64 64 64 64 64 64 64 64 64
97 98 88 76 86 83 76 66 55 39 42 47 52 55 58 59 58 59 62 64 65 66 66 66 65 65 65
96 88 82 76 77 67 63 59 58 56 57 57 58 58 54 53 53 54 54 55 58 62 64 65 65 65 64
86 79 71 63 56 62 70 77 79 62 66 64 59 58 55 54 52 53 55 58 60 64 65 66 64 64 63
77 67 60 59 83 89 80 81 76 65 66 70 58 59 55 44 51 53 55 57 60 62 64 66 66 64 64
64 62 64 63 67 76 79 80 69 62 62 75 59 59 54 53 53 54 56 57 59 62 64 66 66 64 62
59 59 61 61 62 71 84 85 80 68 60 70 66 65 59 60 57 55 53 54 56 60 61 63 65 65 62
56 54 53 57 51 60 80 90 86 89 68 87 77 77 91 66 64 63 63 59 58 58 61 61 62 63 68
59 55 48 52 57 62 66 91 88 86 71 80 97 93 87 86 70 66 66 67 66 62 62 64 64 67 80
48 48 64 82 86 79 78 79 79 88 83 88 97 93 93 92 89 70 70 70 75 78 82 75 72 71 70
57 79 86 89 92 89 82 86 89 87 86 88 94 93 96 94 92 86 83 78 79 85 89 90 89 84 89
68 66 67 85 83 80 81 76 86 79 85 87 91 95 96 93 94 91 83 94 82 82 85 85 82 80 82
73 73 70 75 78 78 78 83 90 86 83 79 83 89 93 97 96 86 82 82 82 85 86 89 88 85 82
81 84 87 89 85 82 82 88 92 87 84 80 79 84 85 83 81 93 88 89 84 82 83 91 89 82 76
90 92 92 86 85 89 88 91 91 83 82 84 90 92 96 92 76 66 84 84 84 84 84 86 89 85 80

GFSFLT2_sfc_rhum_042.txt.gz
RH
97 94 88 80 83 86 86 86 83 74 66 56 56 58 61 63 63 63 63 63 62 62 61 60 58 56 55
98 97 98 97 95 94 79 62 60 56 58 58 62 62 59 56 57 62 63 63 63 63 62 61 60 59 58
99 99 100 99 99 93 81 73 62 63 61 54 48 49 52 56 60 62 63 64 64 64 64 63 62 62 63
97 99 99 98 96 94 89 80 82 56 47 49 52 54 56 55 55 55 57 58 60 61 62 62 63 64 64
98 97 96 99 96 89 93 80 70 68 74 73 74 74 68 60 57 55 55 56 57 58 60 61 62 62 62
97 94 86 84 87 82 91 96 94 76 83 70 75 71 74 72 59 56 56 56 56 57 59 61 62 62 61
90 89 79 76 86 94 86 95 94 83 83 79 79 75 74 54 57 56 57 57 58 59 60 62 63 64 62
80 78 76 76 78 84 86 92 87 84 81 92 80 73 70 75 60 58 59 60 59 57 58 60 62 62 62
57 57 56 58 64 84 96 97 94 88 78 84 84 83 79 69 74 61 57 61 62 62 61 61 61 62 62
64 65 63 63 52 70 95 96 98 97 83 94 94 94 96 87 80 72 76 70 65 67 65 64 63 64 72
75 73 65 62 65 72 75 94 98 93 74 84 100 99 96 90 78 78 75 79 80 73 71 71 71 69 81
62 59 74 91 94 94 89 93 93 93 91 94 98 96 95 92 88 75 76 76 81 85 85 80 77 75 72
67 92 96 97 96 95 95 88 89 87 85 89 94 94 96 94 92 86 81 76 81 87 94 91 90 87 93
90 79 81 95 96 97 97 81 87 87 88 88 95 97 96 94 95 92 86 93 88 84 87 87 86 84 88
93 83 73 80 85 80 89 91 96 91 85 83 86 88 91 96 96 89 86 87 86 88 89 89 86 86 85
90 89 92 93 92 90 93 95 95 89 89 84 86 92 90 86 82 92 88 89 86 88 90 95 88 82 77
94 96 96 95 88 92 91 92 92 90 88 88 94 96 95 92 75 67 84 84 86 84 85 87 90 86 81

GFSFLT2_sfc_rhum_045.txt.gz
RH
96 97 97 97 98 93 92 91 89 78 76 80 76 62 59 60 62 63 63 62 62 61 60 60 59 56 56
98 99 99 96 95 96 89 82 86 77 76 70 62 60 63 60 57 55 57 61 62 62 61 61 59 58 60
99 100 100 99 99 96 92 86 70 69 66 63 59 52 52 53 56 58 60 62 62 63 60 62 61 61 61
99 98 98 99 99 98 98 83 81 62 60 52 52 55 56 58 57 56 58 59 59 60 60 61 62 62 62
98 98 98 98 97 93 92 89 76 76 74 74 76 74 72 65 62 58 57 58 60 59 59 59 60 60 59
98 97 97 87 87 90 88 96 92 81 80 74 76 77 78 82 66 62 60 58 58 58 59 60 61 59 59
86 86 82 77 88 95 87 95 91 82 84 88 82 80 80 62 62 60 59 59 59 60 61 62 62 62 60
81 82 82 80 81 85 85 91 87 85 86 98 85 80 74 80 66 61 60 60 59 59 62 64 64 63 62
60 56 55 56 62 88 96 97 94 90 83 90 87 88 84 85 80 60 63 63 64 65 66 67 67 66 67
71 68 65 67 54 70 96 97 98 97 84 96 96 96 96 84 84 80 84 71 67 67 69 70 70 76 82
79 77 63 62 68 74 78 93 98 97 82 87 98 95 94 97 86 83 83 84 83 78 74 73 73 74 86
65 61 75 91 95 95 89 96 94 91 89 93 98 96 96 91 89 77 81 80 90 87 94 81 77 73 73
74 94 97 97 97 96 95 92 93 91 85 92 94 94 96 94 92 89 87 87 85 90 93 97 93 89 95
92 80 85 96 96 97 98 97 98 96 92 93 96 97 96 95 94 93 88 95 88 86 89 88 88 88 90
97 89 71 75 83 86 88 93 97 94 91 85 85 87 89 95 96 88 87 85 83 86 91 92 86 85 86
88 87 91 93 94 92 95 96 95 92 92 89 90 92 89 86 82 91 87 84 83 86 90 96 89 80 78
94 96 96 96 85 94 93 93 94 92 91 91 94 96 95 93 76 61 84 83 87 86 85 84 89 85 82

GFSFLT2_sfc_rhum_048.txt.gz
RH
97 98 98 99 98 97 95 97 95 88 85 84 84 82 81 78 64 62 62 62 62 61 61 60 59 58 58
99 99 100 99 98 98 94 88 92 87 87 85 81 81 70 66 65 63 59 58 58 60 61 60 60 58 56
99 99 100 99 99 98 97 94 86 85 89 83 77 73 68 58 55 56 58 59 61 62 60 60 59 63 63
98 99 99 99 99 99 99 98 97 80 68 61 59 56 57 58 59 60 61 61 61 61 60 61 61 61 61
100 99 99 99 98 99 99 96 80 79 72 72 74 73 72 64 62 60 60 59 59 61 62 61 61 59 58
99 97 98 98 94 93 94 90 89 81 80 78 75 74 76 80 69 65 62 63 62 60 60 60 60 60 58
95 92 86 79 86 96 90 96 92 83 89 90 87 80 79 67 66 63 62 62 61 62 62 63 62 60 60
86 87 82 82 83 86 88 93 89 87 89 97 90 86 80 82 69 64 63 62 62 63 64 65 65 65 65
64 60 57 57 66 90 97 98 95 91 85 90 90 92 88 89 82 66 62 62 63 65 67 68 68 69 74
75 71 69 69 58 74 95 97 99 96 85 97 96 96 96 80 87 82 82 71 67 68 68 70 71 84 93
78 76 63 62 72 79 78 95 97 96 78 93 97 96 94 93 86 86 87 83 84 76 74 72 70 74 96
69 63 79 93 95 96 90 96 92 90 88 93 98 97 98 92 85 81 84 89 88 86 91 83 77 73 72
75 95 97 97 97 96 95 94 95 94 90 92 93 94 97 94 91 85 79 94 89 90 92 96 92 94 95
94 83 86 98 96 93 93 82 100 95 92 94 95 97 96 95 95 92 88 96 94 94 96 91 91 91 94
98 89 71 75 80 95 91 93 99 97 94 95 91 92 92 94 95 88 88 87 86 86 84 85 80 82 80
81 91 91 92 90 91 97 99 97 94 95 95 98 97 94 90 83 91 87 89 85 86 88 94 89 82 78
96 96 96 95 85 90 95 96 94 93 93 92 99 100 97 95 84 61 88 86 87 92 91 91 90 84 81

GFSFLT2_sfc_rhum_051.txt.gz
RH
96 96 96 98 98 97 96 98 96 86 86 84 85 85 86 83 81 82 80 72 69 67 65 63 62 60 58
99 99 100 99 99 98 97 92 95 90 87 86 85 82 82 82 77 71 68 68 64 61 60 60 60 60 59
100 99 99 98 99 97 97 97 91 90 89 88 85 84 83 82 78 71 62 58 59 60 62 62 60 60 60
98 99 100 100 99 100 100 99 99 94 91 87 82 69 67 63 60 60 62 62 64 63 63 62 61 61 60
100 100 99 98 98 100 99 99 98 95 79 73 70 69 70 64 62 59 60 62 63 62 61 61 62 61 60
98 96 97 97 97 97 98 94 92 81 80 74 74 74 77 79 70 64 64 63 61 63 64 62 59 60 61
94 93 90 86 91 96 91 96 92 84 89 94 90 85 84 69 67 65 64 64 64 64 63 61 60 61 60
88 88 86 85 84 86 89 93 90 88 92 99 92 88 82 83 72 67 65 64 64 64 64 62 63 65 66
67 64 62 62 66 92 94 98 95 90 87 92 92 93 90 91 84 71 66 62 62 63 65 66 68 69 77
75 71 68 67 56 80 96 97 99 96 83 97 95 95 97 79 85 83 83 70 66 68 68 67 69 86 94
76 74 62 67 79 89 81 94 98 97 76 94 99 93 88 92 84 85 85 81 84 79 73 73 72 73 97
67 68 86 95 95 96 88 97 93 90 89 96 99 98 98 91 86 81 86 88 94 86 89 82 78 73 74
74 95 97 97 97 96 95 95 97 95 90 97 98 96 97 95 94 90 83 92 86 89 91 95 95 97 93
96 86 89 98 96 89 95 85 84 95 91 95 98 99 97 96 95 93 88 96 97 98 98 93 88 87 89
98 86 73 77 81 81 89 93 97 98 94 94 92 94 95 96 96 87 84 84 84 89 93 92 81 77 78
95 91 92 92 92 90 94 100 97 94 95 96 98 98 95 92 84 92 89 88 88 91 93 96 91 84 80
98 98 97 94 85 87 86 98 95 94 94 98 100 100 96 96 88 62 94 91 91 92 90 92 92 86 80

GFSFLT2_sfc_rhum_054.txt.gz
RH
96 95 95 97 96 96 97 97 98 94 91 90 88 86 85 87 86 85 82 81 80 77 78 77 75 75 72
99 98 99 98 98 98 96 92 95 92 90 87 85 84 84 84 81 82 84 79 73 73 73 65 62 60 60
100 98 99 98 99 96 97 96 90 89 86 84 82 84 84 83 83 82 81 78 71 64 61 60 60 61 60
98 99 100 100 100 100 99 99 99 94 93 90 89 87 80 81 75 67 65 64 64 63 63 63 63 62 60
99 98 98 96 98 99 97 97 95 96 83 78 76 71 67 63 62 60 57 56 58 61 62 61 61 60 60
100 98 97 98 96 98 98 98 94 85 83 76 75 74 75 77 67 62 60 61 62 59 59 60 61 60 61
93 94 90 88 91 96 90 96 93 85 90 94 89 85 81 72 68 65 65 65 65 64 63 60 59 60 60
89 88 88 85 86 87 90 94 91 88 93 100 93 87 82 83 74 70 68 66 65 64 61 60 62 66 66
68 66 65 64 66 93 98 98 96 90 90 94 92 93 90 91 82 73 72 64 62 63 64 65 66 67 77
73 69 65 62 57 82 97 98 98 95 81 98 94 93 95 78 81 79 77 68 65 68 68 69 68 83 91
71 69 67 83 90 92 84 94 98 97 74 94 100 98 95 96 86 82 81 78 81 78 70 68 70 73 96
67 74 88 94 95 96 88 97 93 90 89 97 98 99 100 96 93 82 85 86 91 83 92 80 78 73 72
76 95 97 97 97 97 96 95 95 94 92 98 98 99 100 96 94 91 88 94 90 93 92 97 94 96 93
95 88 92 98 98 89 94 98 98 97 92 96 98 100 97 90 96 90 90 95 98 97 97 96 90 88 89
98 95 80 81 78 86 89 92 95 99 94 91 93 95 96 96 97 91 88 88 89 91 91 90 84 87 84
98 98 97 98 98 94 92 97 98 95 95 96 98 97 95 90 86 91 90 92 90 92 95 97 90 85 82
99 99 98 99 90 97 93 88 96 95 93 98 100 100 97 96 89 66 95 92 93 93 92 93 92 86 79

GFSFLT2_sfc_rhum_057.txt.gz
RH
90 86 84 87 87 88 88 91 92 90 92 91 90 89 86 82 82 84 82 79 79 79 83 81 77 78 76
94 92 93 90 92 90 90 86 89 88 86 87 85 84 83 82 81 80 78 78 80 80 78 80 82 76 72
97 91 92 91 91 89 95 92 89 89 87 86 86 82 81 83 83 80 82 82 82 82 80 77 76 69 66
93 94 94 93 94 95 90 96 96 88 84 82 81 81 79 77 77 73 69 71 74 75 72 66 64 64 63
90 85 81 80 90 83 78 74 73 67 60 57 57 58 58 58 57 59 59 58 57 58 59 61 62 60 60
85 76 76 69 63 67 68 66 67 59 57 51 52 50 49 48 58 62 60 58 58 59 59 58 60 60 60
70 70 66 63 74 79 72 72 63 56 61 56 54 49 44 45 63 67 64 63 63 63 63 62 61 60 63
66 66 67 66 69 76 70 72 62 58 62 67 54 51 51 52 69 71 69 67 66 64 62 59 62 65 66
66 64 63 63 60 68 74 76 59 56 58 64 57 61 55 54 53 66 70 70 65 61 63 65 63 64 64
47 47 50 51 63 57 72 80 76 70 57 74 64 64 73 50 52 52 52 61 64 67 70 66 68 62 63
45 46 56 61 63 65 66 82 85 80 57 77 90 76 76 75 56 52 54 54 54 55 62 67 67 66 71
50 52 62 70 73 75 74 79 74 86 75 88 92 88 88 84 76 56 57 59 63 66 69 71 72 72 71
61 71 75 76 87 85 86 83 83 82 81 91 91 89 91 88 84 78 77 65 70 79 79 79 76 71 80
68 66 69 82 78 75 77 74 82 77 82 84 91 95 91 86 87 88 80 90 72 72 78 78 72 69 74
73 70 65 68 72 70 73 76 84 82 79 73 76 80 84 92 90 77 72 72 77 82 83 82 75 72 69
76 80 82 83 81 79 80 82 82 80 81 76 79 81 76 74 84 80 74 78 79 81 83 90 87 76 65
82 85 86 86 82 81 80 82 83 80 80 81 87 92 94 92 65 71 92 85 81 79 78 82 90 83 67

GFSFLT2_sfc_rhum_060.txt.gz
RH
89 79 74 73 73 75 81 83 84 85 85 87 87 88 88 87 86 85 85 83 80 79 77 76 77 80 78
88 86 86 80 78 79 79 76 80 82 84 83 83 82 82 81 79 78 76 74 74 76 76 76 78 78 79
95 88 90 85 89 78 77 79 73 75 76 77 80 80 79 79 80 81 83 82 81 82 80 80 79 77 76
87 88 88 86 88 86 73 71 70 59 58 61 65 70 74 72 72 71 68 68 72 75 77 77 74 70 67
85 81 76 73 78 71 66 59 55 52 48 45 45 45 47 51 54 55 56 59 60 62 64 64 64 65 62
80 67 67 59 52 56 56 57 59 50 47 39 39 41 39 40 48 60 61 60 59 58 58 57 56 58 61
52 50 51 51 67 73 63 63 53 45 48 43 37 35 34 33 52 66 67 65 63 61 61 60 62 61 60
55 55 58 58 61 68 60 60 49 42 49 59 40 43 41 43 59 70 70 69 67 66 64 63 60 60 65
63 62 62 62 60 57 70 66 53 40 44 56 48 50 44 45 46 62 61 68 68 66 61 66 69 68 68
40 38 42 44 59 46 56 80 68 70 50 68 59 60 74 44 45 45 47 50 64 64 66 69 69 69 65
34 35 42 48 49 55 59 83 85 80 59 70 84 74 74 74 54 47 48 49 50 50 59 66 69 68 70
37 37 47 58 64 68 68 72 68 85 75 86 88 84 85 84 74 53 52 55 59 64 66 65 67 70 70
43 58 64 68 84 82 85 79 82 78 78 86 89 85 85 87 82 75 74 62 68 79 77 76 73 68 77
50 49 52 72 70 68 75 70 76 73 80 87 88 88 87 79 83 84 76 86 70 71 77 77 70 64 69
53 53 50 55 63 64 70 73 78 76 72 72 77 78 80 88 87 72 65 66 75 84 81 83 74 70 66
62 66 66 69 70 70 73 76 77 71 71 68 72 75 72 69 77 82 72 75 77 80 79 86 84 77 64
71 75 78 78 75 72 70 71 74 71 70 72 80 85 89 86 64 74 88 81 81 80 79 82 88 84 69

GFSFLT2_sfc_rhum_063.txt.gz
RH
90 81 79 78 77 76 79 80 84 84 83 83 84 85 87 87 85 84 84 84 84 83 83 80 77 76 77
93 93 89 83 80 80 76 74 81 78 81 81 82 82 82 82 80 78 76 73 71 72 72 71 72 72 75
100 94 91 90 87 80 77 82 70 66 64 69 74 78 79 78 78 77 80 82 81 82 79 77 75 74 73
93 96 91 88 88 87 84 79 76 52 55 58 58 65 70 71 70 68 68 68 70 74 75 76 76 74 68
93 91 83 80 82 80 81 73 68 65 64 59 56 58 60 48 53 53 60 62 62 62 64 66 67 67 68
87 78 77 73 62 72 74 84 84 65 63 58 54 58 53 51 49 54 60 61 60 60 59 58 58 57 57
65 64 63 66 84 88 81 84 75 65 64 65 52 54 53 41 54 62 66 66 65 63 61 60 59 60 60
67 68 69 69 71 75 76 76 68 63 63 84 57 61 60 60 59 66 67 69 69 66 65 63 63 61 58
59 59 59 60 62 74 89 89 80 53 61 72 69 69 64 63 65 61 59 57 66 67 65 62 66 69 74
56 52 50 49 54 62 79 94 92 92 72 89 85 79 95 66 62 66 67 52 54 61 67 67 67 72 81
45 45 50 58 61 67 71 94 96 95 80 86 92 94 94 94 76 70 70 68 73 70 57 59 66 68 89
44 44 59 76 82 84 81 88 90 93 90 93 97 94 88 87 92 77 78 81 86 89 92 74 69 66 66
50 74 84 90 93 93 94 89 87 89 87 94 92 92 94 90 89 89 86 92 84 90 95 96 95 95 95
64 57 62 90 90 89 93 90 87 88 87 92 90 90 91 93 93 91 89 94 94 94 95 94 91 86 87
66 64 57 71 80 88 90 92 93 91 92 94 91 92 90 93 96 88 85 83 84 88 93 81 79 89 85
82 86 84 88 88 89 91 92 91 88 92 91 93 93 89 81 77 90 87 87 88 89 78 90 83 84 82
90 92 93 94 86 90 88 88 88 88 89 93 95 95 96 95 85 64 92 92 93 91 89 89 90 86 84

GFSFLT2_sfc_rhum_066.txt.gz
RH
95 88 88 86 85 80 80 84 90 80 79 82 82 84 84 84 84 84 83 84 85 84 83 83 84 83 82
96 97 94 92 94 82 76 73 80 74 75 78 78 81 83 82 83 82 78 77 74 72 74 76 72 72 76
100 99 98 95 88 81 80 90 81 63 59 62 68 71 77 79 79 77 77 79 81 81 78 76 73 72 71
97 99 96 92 91 93 92 91 84 56 56 57 53 60 63 64 67 66 67 68 69 71 74 74 76 75 68
99 98 89 92 89 92 89 84 83 75 74 67 65 65 67 60 61 60 59 62 62 62 63 65 66 66 65
96 87 87 85 85 88 86 96 93 80 73 71 67 62 60 54 44 58 61 61 61 58 59 60 59 59 59
79 81 85 85 89 92 91 92 90 80 74 78 68 65 69 52 58 57 64 69 68 65 62 61 60 59 59
88 89 90 87 86 87 84 85 83 78 72 92 76 72 72 72 57 60 62 60 65 68 65 64 63 62 60
56 56 57 57 61 84 96 94 92 68 79 81 86 83 79 79 79 57 57 55 55 61 68 66 64 66 82
67 59 52 53 50 72 92 95 98 96 85 94 94 94 95 87 79 78 77 59 54 55 56 62 66 86 90
54 53 56 68 73 80 82 97 98 98 89 93 98 98 98 97 89 81 84 77 80 79 66 63 62 67 88
51 52 68 88 93 93 89 93 96 95 96 94 98 98 98 97 93 89 90 85 93 94 96 78 71 69 70
56 85 94 97 97 95 96 96 96 93 92 98 98 98 98 97 93 86 90 93 83 94 96 97 97 98 97
80 67 79 97 97 97 97 97 98 96 92 94 95 96 96 92 91 92 95 96 96 94 94 90 93 94 95
81 75 64 81 90 96 97 97 97 97 96 98 96 95 96 97 99 93 92 93 91 91 95 92 85 77 82
94 94 92 95 96 96 97 97 97 96 96 97 99 98 97 94 90 95 92 94 91 92 92 92 87 84 84
95 96 97 97 90 97 97 97 97 97 97 97 97 98 100 92 90 64 91 97 95 93 97 95 93 87 86

GFSFLT2_sfc_rhum_069.txt.gz
RH
96 90 87 85 83 84 82 86 89 76 78 79 82 84 85 86 85 84 82 81 83 83 83 84 84 85 86
98 97 95 92 92 84 79 77 83 71 70 74 76 76 81 82 83 84 83 81 78 76 77 79 77 72 71
100 99 98 94 91 85 81 91 85 62 57 58 61 69 73 77 78 78 76 79 80 80 79 77 75 73 70
98 100 96 93 93 94 92 89 84 57 56 58 57 60 57 65 63 66 67 67 68 70 73 72 75 75 68
99 98 96 94 92 93 88 86 84 77 73 66 67 67 70 63 62 56 56 57 59 62 63 64 66 67 65
98 91 91 86 88 88 88 97 93 84 75 69 71 64 63 62 47 55 58 63 61 59 59 59 60 60 61
79 80 82 84 89 93 91 94 90 84 74 67 75 70 74 58 57 57 64 66 70 67 63 60 60 59 59
84 90 88 88 86 87 85 87 86 79 75 90 82 77 77 76 58 57 59 58 57 66 65 64 63 62 61
62 59 59 58 67 82 96 94 90 72 83 81 89 91 86 89 77 60 56 53 52 56 61 67 67 67 83
64 59 54 53 52 73 88 95 98 96 86 94 93 95 92 85 87 85 82 63 60 56 59 59 60 86 92
56 55 56 66 73 81 86 95 99 98 90 91 99 98 98 98 87 85 89 86 86 80 71 69 64 70 96
52 50 64 82 93 92 87 95 96 93 95 95 98 98 99 99 96 87 90 91 96 95 96 77 74 69 68
54 81 87 92 97 97 97 98 98 96 93 98 97 100 98 100 99 98 90 93 88 98 98 98 97 97 97
70 62 79 99 96 96 97 98 100 98 92 95 97 97 100 98 98 90 90 98 97 96 95 91 94 95 97
70 68 62 78 90 98 97 98 98 98 97 95 97 97 96 96 98 96 96 97 96 95 98 95 89 94 92
84 88 89 93 94 97 98 97 97 97 98 97 99 95 93 94 92 95 94 97 96 96 96 100 95 94 89
87 89 93 96 91 97 98 98 97 98 98 98 98 99 100 97 90 72 98 98 98 95 98 99 96 89 86

GFSFLT2_sfc_rhum_072.txt.gz
RH
97 94 90 86 84 84 84 86 87 76 78 79 78 84 85 85 84 83 81 81 81 81 82 83 83 83 83
98 97 95 91 88 86 81 79 86 72 70 72 74 76 79 82 82 84 82 82 80 80 80 78 76 74 73
100 99 98 93 92 86 84 92 85 62 58 59 60 67 69 74 76 77 76 78 79 80 79 78 76 75 71
98 99 96 93 94 94 92 88 83 57 56 59 62 64 58 64 66 66 66 68 69 71 73 73 76 75 71
100 98 96 96 94 94 89 85 82 78 72 67 68 68 79 67 60 55 56 57 59 62 64 65 65 66 66
97 90 93 92 85 85 86 97 91 85 74 65 69 66 66 60 51 55 61 67 67 61 59 58 60 60 61
90 86 84 81 88 93 91 94 86 84 75 62 76 72 76 60 59 58 64 64 68 68 64 60 60 59 59
78 83 84 87 85 86 85 85 85 78 74 85 84 80 82 80 66 56 58 58 56 61 66 64 64 62 64
71 68 70 71 74 86 96 94 86 71 82 78 89 92 88 92 77 65 63 58 53 55 58 64 68 68 83
68 58 55 54 55 72 90 95 96 96 83 90 91 94 89 82 89 87 85 69 67 66 65 62 62 88 92
58 56 57 67 75 78 79 93 98 98 88 89 99 98 98 98 84 86 89 84 84 83 73 72 69 73 96
53 52 66 82 91 87 84 90 91 92 95 95 98 97 99 98 96 86 90 91 96 94 96 83 70 67 66
55 80 89 94 96 95 94 95 98 96 93 97 97 100 98 98 98 98 93 94 98 99 98 97 97 97 97
67 58 78 96 93 90 94 97 99 97 93 96 97 97 100 98 98 97 96 98 98 98 98 94 95 93 96
69 67 61 80 87 91 96 98 98 98 96 95 97 97 97 97 98 93 96 98 96 96 98 96 91 94 91
84 85 82 86 86 91 95 98 97 98 98 97 98 96 90 94 91 94 91 92 97 97 98 100 95 95 92
86 89 91 90 86 91 93 93 94 93 97 98 99 100 100 97 87 77 98 99 98 98 98 98 95 88 88

GFSFLT2_sfc_rhum_075.txt.gz
RH
97 95 94 92 89 86 85 86 86 74 76 77 76 79 83 86 86 85 83 82 81 84 86 86 87 86 86
98 98 96 90 88 86 82 78 84 74 70 69 72 78 81 81 82 83 84 84 84 83 81 78 77 78 78
100 99 98 94 93 86 87 94 75 62 61 62 64 64 72 73 73 75 76 77 79 80 80 81 78 75 71
98 100 97 93 93 92 95 88 82 56 57 60 63 69 64 64 62 62 62 64 69 71 73 75 77 75 71
99 98 96 94 92 96 91 83 80 77 71 66 68 65 79 72 62 57 58 59 59 62 64 66 67 68 67
99 92 90 92 89 85 84 92 83 85 73 64 69 65 64 60 56 56 64 70 69 64 60 59 60 61 62
88 90 92 86 89 92 87 89 83 83 77 61 76 70 74 62 65 58 63 62 65 68 64 60 60 60 59
81 83 84 86 84 84 84 84 83 78 74 85 82 76 80 77 72 56 58 58 56 60 67 64 64 64 67
74 74 73 73 80 86 96 94 83 71 80 75 84 84 83 87 77 69 66 61 54 57 58 63 67 71 84
68 62 56 56 63 74 92 96 97 96 81 91 85 87 83 77 86 86 85 72 71 70 68 67 64 88 91
60 57 57 67 76 76 79 93 97 97 86 86 97 95 96 95 80 85 89 83 84 83 70 69 68 74 97
53 51 65 80 88 90 85 92 91 92 90 92 97 97 98 95 93 83 90 90 96 94 95 80 67 66 62
56 78 86 88 93 94 96 93 94 91 90 94 96 99 98 97 97 98 92 93 97 98 98 97 97 98 96
66 58 80 95 91 90 91 89 93 92 90 95 96 96 99 98 98 98 98 98 98 98 98 97 93 91 96
72 68 65 86 91 94 90 95 97 96 91 91 95 95 96 97 99 96 95 98 96 98 97 97 94 93 90
90 91 85 90 93 95 94 97 95 93 95 93 93 95 95 91 91 95 94 91 97 98 98 100 97 95 88
90 92 92 94 83 89 93 94 95 93 94 94 97 100 100 92 81 78 97 99 98 99 98 98 95 87 87

GFSFLT2_sfc_rhum_078.txt.gz
RH
98 96 95 94 92 88 87 86 85 74 74 75 75 76 82 84 85 85 84 83 84 83 83 87 88 90 89
98 99 96 93 92 90 84 78 81 70 69 69 71 79 78 77 80 82 83 83 84 85 84 83 85 85 85
100 99 98 95 94 87 86 89 65 62 63 66 66 65 72 73 71 72 74 77 78 80 80 81 80 75 77
99 100 97 95 94 94 96 87 83 56 57 61 64 71 64 65 60 59 60 63 70 72 74 75 76 74 70
100 98 97 96 96 92 94 84 83 76 68 63 65 62 76 64 63 58 61 64 60 62 66 68 70 70 68
100 97 95 91 87 90 94 96 89 82 69 61 66 62 63 69 60 58 65 69 68 64 59 60 62 63 64
94 88 87 86 89 91 86 88 76 81 76 61 73 67 71 63 65 59 62 60 65 67 63 60 60 59 59
83 83 84 84 84 84 82 83 84 77 71 85 79 72 78 77 73 58 59 58 57 62 66 66 65 68 68
74 73 73 74 78 84 91 94 82 71 78 73 82 80 81 83 77 73 67 62 55 60 60 64 67 77 82
68 62 60 67 72 74 90 93 92 92 79 90 83 82 83 75 80 80 77 72 72 72 69 67 66 86 87
61 57 58 72 73 74 80 92 96 96 83 87 97 92 91 88 71 77 82 78 77 77 70 70 66 73 96
56 54 66 83 90 89 85 90 92 91 92 93 97 94 92 93 86 77 84 86 90 88 87 80 69 66 63
61 79 87 91 94 96 96 95 94 91 92 94 95 97 97 96 94 96 91 89 92 96 94 92 92 92 94
73 61 82 96 93 95 98 97 98 97 94 95 96 95 99 97 97 98 96 97 94 95 93 95 89 87 92
78 68 65 86 92 96 96 98 98 98 97 94 95 93 95 96 99 94 93 97 97 98 96 97 92 92 87
91 89 85 92 95 97 97 96 97 98 97 95 96 96 95 90 88 90 94 96 98 98 98 100 97 92 83
93 94 93 94 85 95 97 97 98 97 98 98 98 97 98 90 82 81 97 98 98 97 98 98 97 87 85

GFSFLT2_sfc_rhum_081.txt.gz
RH
93 92 93 92 88 84 90 85 88 80 74 74 75 79 81 82 83 84 84 84 84 84 86 86 88 84 84
94 97 94 92 92 90 86 79 78 76 70 68 73 78 76 76 79 81 82 82 83 85 84 84 86 84 88
99 95 93 91 92 88 86 87 61 68 67 71 66 69 72 69 67 69 73 76 78 80 82 81 80 80 79
97 98 94 93 92 94 94 84 74 47 55 58 62 72 66 62 58 60 62 64 71 73 75 76 77 73 73
98 97 96 94 94 89 92 83 69 59 53 48 47 47 62 56 59 60 65 65 60 64 68 70 72 71 72
98 94 91 90 85 88 86 84 83 63 55 50 47 45 46 56 59 60 64 68 67 61 60 63 65 66 67
92 88 85 83 86 88 78 73 67 65 56 50 51 47 52 48 65 59 61 60 66 65 59 58 59 59 60
73 75 72 73 72 76 70 72 67 60 58 65 52 50 53 53 71 59 59 58 58 67 64 65 65 66 64
71 71 73 73 68 66 77 85 77 56 59 52 57 56 56 58 65 71 65 62 57 61 64 67 73 78 73
66 59 66 71 69 62 74 86 74 72 59 68 62 60 66 62 63 64 62 71 73 70 68 67 70 65 64
50 46 50 60 58 58 70 86 86 80 65 75 85 77 78 74 60 62 63 61 60 60 66 67 65 68 74
52 45 48 59 69 71 70 76 75 86 78 88 91 86 85 80 74 59 60 65 69 68 70 71 66 65 63
53 58 63 66 83 86 88 84 84 84 88 92 91 91 85 79 75 72 70 67 74 81 78 76 72 69 73
55 50 61 77 74 77 79 80 82 80 87 90 90 89 89 82 84 79 78 85 77 78 80 78 71 66 68
63 54 52 65 71 77 78 83 78 78 81 86 88 86 86 90 87 75 68 75 80 84 84 82 74 71 65
78 73 67 74 77 84 84 81 80 76 78 80 85 85 80 75 82 75 74 77 79 82 84 89 79 73 62
85 86 83 80 73 80 82 81 82 77 77 81 87 88 84 73 58 78 83 83 82 79 80 81 85 80 65

GFSFLT2_sfc_rhum_084.txt.gz
RH
88 86 83 87 86 82 85 82 86 87 77 77 74 81 82 82 82 80 82 83 83 84 86 87 88 82 83
93 94 92 91 90 89 84 77 79 79 76 69 74 79 77 77 75 79 81 82 82 84 85 86 87 88 85
93 90 92 90 92 86 86 84 65 80 71 73 67 75 75 68 64 67 72 76 78 79 82 83 84 86 87
90 94 93 91 91 93 94 87 75 50 60 61 62 74 69 61 58 61 63 63 71 74 76 78 79 77 82
97 96 95 93 95 91 94 88 76 66 65 50 48 48 61 54 54 60 65 66 62 65 70 72 74 74 71
96 93 88 88 85 89 90 88 89 66 60 55 45 46 42 47 57 59 61 67 66 59 61 66 68 69 70
88 86 85 81 85 90 85 86 79 56 58 57 50 46 44 42 64 60 60 60 66 62 58 58 60 61 62
69 71 71 74 76 81 75 69 64 59 63 61 47 43 46 46 66 61 59 57 59 66 64 64 64 63 62
69 71 72 70 63 63 73 75 63 55 59 53 58 46 48 48 59 61 63 60 60 62 68 71 77 76 74
65 69 66 68 66 56 70 95 70 65 49 63 53 50 64 52 55 62 62 74 74 70 69 68 70 63 61
45 44 54 63 55 48 58 85 90 78 53 68 85 69 76 70 55 57 58 60 58 60 65 64 63 67 71
44 40 41 50 59 61 63 68 67 91 67 92 99 87 88 77 66 60 62 61 63 62 64 64 69 65 64
48 51 57 58 84 85 86 80 82 83 86 98 94 94 89 84 75 67 62 62 68 76 76 73 69 65 72
49 49 52 70 66 70 74 69 73 75 85 94 97 92 88 79 82 79 73 87 74 74 77 74 67 61 64
55 50 44 55 60 67 69 75 77 70 72 80 82 83 83 91 84 70 62 63 71 81 81 78 69 66 61
75 71 65 68 68 74 79 78 77 69 70 74 81 82 77 74 80 71 62 70 72 79 81 84 77 70 58
90 92 90 84 78 76 77 75 78 72 72 77 85 86 82 74 62 77 83 80 77 75 76 78 85 81 65

GFSFLT2_sfc_rhum_087.txt.gz
RH
89 86 88 86 85 84 88 87 89 86 80 78 77 81 79 79 81 82 79 81 82 82 83 87 86 89 83
94 95 93 92 92 91 84 77 80 84 78 73 74 80 76 73 73 74 78 80 80 82 84 86 88 89 85
99 96 96 92 95 89 88 86 67 84 74 74 68 76 73 66 63 63 67 74 76 78 80 82 86 89 89
95 98 95 93 95 97 97 90 79 54 67 68 66 72 67 61 59 62 66 66 67 74 76 78 79 81 86
98 98 97 96 98 95 97 93 85 77 73 68 68 70 79 59 57 60 63 66 66 64 71 73 74 76 76
100 98 94 93 92 96 96 96 97 78 78 79 59 70 60 62 57 59 60 65 68 61 63 67 70 71 74
93 92 93 90 92 96 93 95 91 73 76 78 66 67 62 50 64 59 59 60 66 62 58 61 63 65 66
80 81 80 82 87 89 88 87 79 71 75 86 64 63 65 66 60 62 59 58 61 65 65 64 64 63 63
69 72 68 70 72 81 94 95 89 74 71 71 69 69 67 67 74 65 62 59 60 68 70 73 78 75 79
84 80 75 75 67 74 94 98 94 89 73 87 70 69 86 68 79 82 86 72 69 70 70 69 70 79 81
68 73 76 81 72 67 77 98 98 95 68 90 96 92 95 92 74 73 75 78 78 76 67 66 63 71 87
60 54 66 84 84 86 79 85 91 98 81 99 99 97 97 94 90 73 77 79 81 84 87 66 67 65 64
65 79 87 91 93 95 95 93 94 94 96 98 98 98 98 97 96 92 88 81 93 95 96 95 94 93 94
68 69 80 93 90 92 94 92 95 96 93 97 97 95 96 95 95 96 95 97 96 95 95 95 85 79 86
74 66 64 76 81 89 92 93 95 94 96 97 92 92 95 96 97 95 93 93 95 96 94 97 95 88 83
86 79 72 80 80 90 94 95 94 92 93 95 97 96 96 95 84 94 92 92 94 95 95 97 97 93 82
87 88 89 88 79 88 92 93 95 93 94 95 96 96 96 94 97 79 96 95 95 96 96 96 96 96 88

GFSFLT2_sfc_rhum_090.txt.gz
RH
97 95 95 94 91 94 92 90 91 84 79 77 77 80 78 78 77 78 81 79 79 80 79 80 84 85 88
97 98 97 97 95 94 86 78 83 82 80 74 74 80 76 73 71 71 72 77 78 80 80 80 86 88 90
100 98 98 96 97 92 90 88 70 82 75 75 70 74 75 66 63 63 66 67 73 77 79 80 83 87 88
98 99 98 97 97 98 98 93 86 59 67 68 71 72 69 62 59 63 65 66 66 70 75 77 79 82 84
98 99 99 99 99 98 98 97 90 80 73 72 71 72 79 64 58 61 61 64 66 62 70 73 75 78 78
100 99 98 96 96 98 98 99 99 85 82 80 69 74 73 74 55 58 59 62 67 62 62 67 70 72 74
96 97 96 95 96 98 97 97 96 82 83 85 67 77 69 61 62 59 58 60 66 62 58 61 64 65 67
91 92 92 91 89 91 93 92 81 72 76 84 77 76 79 77 60 63 59 58 63 65 64 64 64 69 72
73 73 75 76 82 92 98 93 92 86 85 78 76 78 76 78 81 65 62 60 61 69 68 74 75 74 78
90 84 81 80 72 88 95 96 94 93 85 88 80 79 89 81 93 91 93 68 72 70 72 71 70 84 85
93 93 93 88 82 83 91 97 96 97 82 96 98 96 98 95 84 89 86 89 90 85 67 64 62 73 91
78 83 94 97 92 93 86 93 97 94 83 97 99 96 98 98 94 82 86 86 89 90 93 68 66 64 63
75 84 90 93 96 97 98 96 98 96 96 99 100 99 99 98 96 95 96 89 97 96 98 97 96 97 94
76 80 97 98 98 98 98 98 98 99 98 98 99 97 98 98 97 98 98 96 98 98 98 98 92 88 91
81 83 85 93 95 96 97 98 97 99 98 98 96 96 98 96 98 98 98 98 98 97 96 98 98 93 91
83 81 85 90 92 96 97 97 97 97 98 99 99 98 97 93 88 97 98 96 98 97 98 98 98 93 91
86 83 86 90 80 89 98 98 97 97 97 98 99 98 98 95 97 81 96 98 98 98 98 98 98 96 91

GFSFLT2_sfc_rhum_093.txt.gz
RH
98 96 97 97 97 94 95 95 92 83 79 78 76 79 78 76 74 74 76 78 77 78 77 76 78 83 84
98 99 98 95 95 95 90 83 87 80 82 79 75 80 77 73 69 69 69 70 75 77 79 80 80 84 86
100 99 100 97 98 94 91 89 74 84 77 74 73 76 79 68 64 64 66 68 68 73 78 79 80 81 84
99 100 98 98 97 98 99 95 91 67 74 66 74 73 75 65 60 61 63 64 66 66 73 76 79 79 80
99 100 100 99 99 98 99 98 95 85 75 75 78 76 83 66 59 61 60 62 66 63 66 72 75 77 76
100 99 98 97 98 98 98 99 99 91 86 84 73 78 81 73 61 58 59 60 65 64 60 66 71 73 73
95 94 96 96 96 98 98 97 97 89 86 89 72 71 66 70 60 59 59 59 65 65 61 63 64 66 68
93 93 94 94 94 92 93 94 80 77 81 91 72 78 82 77 61 60 59 59 65 67 68 67 77 76 75
82 84 85 85 87 92 98 94 94 86 81 75 78 76 78 79 79 60 62 60 63 66 66 71 74 75 84
88 84 86 86 83 92 95 96 95 91 86 86 81 80 87 84 94 94 93 71 70 70 72 70 70 91 92
95 96 95 93 90 92 94 95 95 96 84 89 97 98 96 96 88 94 94 92 93 88 70 64 63 76 93
93 97 98 96 93 95 94 97 94 89 85 94 97 94 98 98 94 87 92 91 92 92 94 74 69 66 63
83 87 94 94 95 97 98 98 97 96 98 98 98 100 97 97 97 96 95 91 98 97 98 97 96 98 94
78 74 85 93 96 96 98 99 98 99 98 98 99 96 99 98 97 97 98 95 98 98 98 98 93 92 94
81 82 79 84 89 96 95 99 98 99 97 99 96 96 98 94 97 98 98 98 98 98 96 98 98 94 92
85 84 83 87 90 93 97 98 98 99 99 100 100 97 92 89 88 98 99 97 98 98 98 98 98 94 91
83 86 88 89 85 90 93 95 98 98 98 99 98 96 96 90 92 80 95 98 99 99 98 98 98 96 91

GFSFLT2_sfc_rhum_096.txt.gz
RH
98 98 98 98 99 97 96 97 96 82 79 79 78 77 78 76 73 72 73 76 75 77 78 77 75 75 79
99 100 98 97 97 97 93 92 96 84 83 81 79 78 79 74 69 68 68 69 70 73 76 78 77 75 80
100 99 100 99 99 94 93 92 83 80 82 78 76 78 79 74 66 64 64 63 68 70 72 77 78 78 78
100 100 99 99 98 99 100 97 92 70 79 74 74 76 76 71 63 60 62 61 64 64 66 74 77 77 77
100 100 99 99 98 99 99 98 96 90 84 88 86 83 81 71 63 62 60 59 63 64 61 69 73 75 75
100 99 98 98 99 99 99 100 99 97 95 93 83 85 80 85 65 60 59 59 62 65 61 65 68 70 72
95 96 97 96 97 99 98 98 97 96 94 94 80 81 73 64 62 60 60 58 62 66 62 63 67 74 71
90 92 92 94 89 93 95 94 84 87 87 95 84 75 73 71 64 59 61 59 64 67 68 74 77 74 75
88 87 86 87 91 96 99 97 95 85 83 79 77 76 78 76 76 64 63 61 63 63 63 69 74 76 87
92 91 90 91 88 92 94 98 96 94 86 85 79 77 84 80 91 94 93 75 67 70 70 69 73 92 94
96 97 96 96 98 96 94 94 96 96 85 85 96 97 92 96 89 95 95 94 95 90 74 66 64 79 94
94 98 98 98 94 96 95 95 94 90 84 90 94 95 98 98 94 91 95 93 94 94 95 79 71 69 65
85 90 96 95 95 97 98 96 96 95 93 97 95 97 96 97 97 98 95 91 98 98 98 97 96 98 94
83 87 95 95 96 96 99 98 98 98 97 97 99 95 100 98 97 98 98 95 99 98 98 98 94 92 94
83 80 82 88 87 97 96 98 97 99 96 98 96 94 97 95 98 96 98 98 98 98 96 98 98 94 90
86 82 80 89 90 95 97 96 97 97 99 98 99 96 93 88 84 98 99 97 98 98 98 98 97 94 89
98 97 88 88 86 89 88 89 96 98 98 99 98 95 95 82 95 80 95 98 98 99 99 98 97 97 91

GFSFLT2_sfc_rhum_099.txt.gz
RH
99 99 99 99 99 98 97 97 96 84 82 81 79 78 79 78 75 72 71 71 73 73 73 75 74 71 71
100 100 99 99 99 99 98 95 97 87 83 81 80 79 80 77 72 68 68 68 70 71 72 76 76 76 75
100 100 100 97 99 96 97 97 91 83 80 82 80 78 81 78 69 66 63 62 63 66 67 74 77 77 75
99 99 100 100 98 99 100 97 96 79 81 79 81 77 77 79 70 64 62 60 62 64 61 69 75 77 76
100 100 99 99 98 99 99 99 98 92 86 85 86 93 91 80 69 65 61 58 60 63 61 63 71 74 75
100 98 99 99 99 99 99 99 99 96 95 92 90 96 88 88 70 66 60 58 59 64 62 63 67 70 71
96 96 98 95 97 99 99 99 98 97 94 98 93 92 81 76 76 65 61 58 60 65 64 64 74 74 77
90 94 93 93 92 94 95 96 91 96 94 99 88 93 78 74 68 63 62 60 63 69 67 72 75 74 73
97 96 95 94 91 92 98 98 98 94 95 91 85 82 80 78 73 66 63 62 64 66 62 66 75 76 88
98 95 93 92 88 88 95 100 98 97 86 88 80 78 87 78 84 89 92 66 66 70 68 69 75 92 94
98 99 99 99 98 97 93 95 96 96 89 88 95 91 90 95 91 96 95 96 95 84 72 64 69 81 93
98 99 99 99 99 98 96 94 90 95 86 88 94 94 97 98 94 93 97 96 96 96 95 78 70 67 70
94 95 97 98 98 98 98 95 96 96 91 91 91 96 96 97 96 98 97 94 98 98 99 98 96 98 92
89 89 93 98 99 98 98 99 99 98 98 96 94 92 98 98 95 97 98 96 100 99 98 99 95 91 93
86 86 90 94 95 95 98 98 99 98 99 96 96 94 97 94 97 94 97 99 99 99 96 98 98 93 89
90 88 88 91 92 92 96 96 94 99 98 98 98 96 92 87 81 96 99 96 99 98 98 96 96 91 89
99 98 98 95 88 90 88 89 94 94 99 99 98 94 94 87 93 78 95 98 98 99 98 95 93 97 92

GFSFLT2_sfc_rhum_102.txt.gz
RH
99 99 99 98 99 99 98 98 96 88 85 83 82 82 81 80 78 75 72 70 71 71 70 69 71 71 69
99 100 99 98 98 98 99 98 98 88 84 83 82 82 82 80 76 73 70 68 68 70 69 71 75 75 74
100 99 100 99 99 99 99 99 97 91 84 83 83 82 82 81 75 72 68 64 63 64 63 67 73 76 76
99 99 100 99 98 98 99 97 98 87 87 89 84 82 81 82 77 72 66 62 62 64 62 60 70 75 75
100 100 99 99 97 98 98 98 97 94 96 96 91 91 89 81 80 72 67 62 61 62 61 58 66 71 73
98 97 97 96 97 98 99 99 99 96 95 96 88 93 91 93 75 72 66 62 60 62 62 60 66 73 73
95 94 96 93 94 98 99 99 99 99 96 99 90 94 96 87 78 74 67 64 60 65 64 64 73 70 73
93 90 91 91 91 91 96 98 97 98 95 99 95 97 85 81 78 74 67 64 62 69 70 71 70 74 69
95 94 96 94 94 96 99 98 100 99 98 96 88 85 80 78 77 68 66 65 65 70 66 67 75 76 84
100 99 97 97 95 90 96 100 99 98 96 92 82 80 88 76 78 84 88 66 65 68 67 72 75 87 92
99 99 99 98 99 98 95 98 98 98 94 90 93 87 90 92 89 91 94 92 93 80 69 66 74 79 89
99 99 99 99 99 99 98 96 94 94 90 90 95 93 95 98 93 96 98 97 96 97 94 77 68 68 72
98 98 99 99 99 98 96 94 95 94 90 86 90 95 94 94 95 99 99 98 98 98 98 98 94 95 91
97 98 98 99 99 98 98 95 97 100 94 89 92 89 96 98 96 98 99 98 100 98 97 98 92 88 89
96 95 97 98 98 97 96 96 98 98 99 97 93 93 95 92 95 96 97 99 98 98 96 98 97 93 88
96 95 96 98 98 97 97 95 98 98 98 98 97 97 94 89 82 96 98 98 99 97 96 96 96 93 90
98 98 98 98 98 96 97 97 97 98 98 97 98 95 95 92 93 77 96 99 98 99 97 96 92 96 86

GFSFLT2_sfc_rhum_105.txt.gz
RH
94 96 98 96 99 95 98 98 98 95 92 89 89 88 87 85 83 80 77 76 74 73 71 70 70 70 71
98 99 98 97 98 98 99 99 98 95 91 89 87 86 84 84 82 78 75 73 73 73 71 70 72 73 73
99 99 100 98 99 99 99 99 99 96 92 89 84 84 84 83 80 77 75 72 69 68 66 64 68 71 74
99 99 99 99 98 98 99 99 98 98 93 87 85 85 84 83 80 79 75 69 66 66 65 60 61 69 72
100 100 99 99 97 96 97 98 99 95 96 89 87 84 81 85 84 82 73 68 66 65 65 60 59 67 70
98 97 97 95 96 98 98 99 99 97 95 93 82 87 82 86 86 80 75 70 66 65 64 60 62 72 76
96 93 92 91 94 98 96 93 93 98 94 98 90 90 85 83 86 81 77 70 67 65 65 61 72 70 69
98 92 86 86 88 89 90 91 99 99 95 99 92 91 84 82 85 81 76 71 66 66 67 73 71 72 68
97 98 96 92 89 96 99 98 100 99 99 96 97 89 79 76 75 83 77 71 67 69 72 71 75 78 77
97 99 98 95 94 91 94 100 99 100 99 96 94 89 91 67 68 75 72 70 66 70 69 72 76 64 66
98 98 99 98 97 93 90 94 100 100 97 95 98 92 90 84 72 69 75 72 67 70 70 73 75 67 70
98 98 98 98 98 99 94 95 92 99 94 95 99 92 91 90 85 79 82 82 78 80 78 71 72 72 68
98 98 98 99 100 100 99 97 97 97 95 99 94 94 89 87 85 83 82 85 85 88 85 79 76 72 79
98 97 99 99 99 99 98 97 96 98 87 95 97 90 90 81 84 90 86 95 91 87 85 78 70 62 62
99 99 99 98 99 99 98 98 96 96 95 86 83 84 82 89 84 79 79 80 89 94 87 83 74 68 61
98 99 99 99 98 99 98 99 98 97 95 90 89 82 78 75 72 80 77 81 90 90 84 88 80 76 64
100 100 100 100 99 98 98 99 98 98 97 94 89 86 85 78 83 74 87 85 90 86 80 74 83 79 63

GFSFLT2_sfc_rhum_108.txt.gz
RH
87 90 94 96 98 97 94 94 91 92 95 95 94 93 91 90 88 87 83 81 78 76 74 73 71 71 72
89 96 96 91 92 97 97 96 93 97 97 95 94 94 92 91 89 87 85 81 78 76 74 73 73 73 74
90 99 99 99 100 99 99 99 98 99 97 96 94 93 91 90 89 86 84 80 77 76 74 72 70 71 71
99 100 99 99 99 98 99 99 99 99 98 96 94 93 91 88 87 86 84 80 74 71 69 67 65 64 69
99 100 99 99 98 98 98 98 99 99 99 99 97 93 89 88 86 88 83 77 73 70 68 68 64 62 69
98 97 95 93 94 98 97 99 99 99 98 99 95 94 84 82 85 84 82 77 73 71 69 66 62 64 75
94 96 93 92 93 98 96 93 91 97 95 98 98 98 88 79 91 88 83 79 76 72 69 66 63 73 72
84 87 90 89 91 89 90 91 98 99 92 98 98 98 96 87 91 89 86 81 76 72 69 67 73 72 70
80 90 93 94 96 94 99 99 100 99 97 97 99 100 98 97 90 88 86 83 78 72 69 70 75 78 77
74 77 79 85 96 96 95 98 97 100 98 95 98 96 100 95 89 94 91 85 78 72 70 74 75 69 65
79 81 83 87 93 98 94 95 100 99 95 92 100 99 99 95 92 88 93 86 78 69 72 74 76 65 66
80 80 89 98 98 98 96 94 90 94 94 90 100 97 97 96 96 91 88 81 78 74 78 74 76 71 63
88 87 86 93 99 100 100 100 100 99 96 99 98 99 96 98 93 92 96 90 85 89 88 84 81 78 81
97 97 90 100 99 99 100 99 100 98 95 100 100 99 98 93 90 92 87 98 89 88 88 83 74 67 71
97 97 97 98 98 99 98 99 98 96 97 96 96 98 96 92 95 85 85 84 89 91 89 89 77 66 58
96 97 98 99 99 99 100 99 99 98 98 96 97 97 97 93 82 81 83 86 87 92 86 93 88 74 58
98 98 99 99 100 99 100 100 100 98 98 97 98 98 98 94 79 76 89 90 90 89 85 84 92 87 62

GFSFLT2_sfc_rhum_111.txt.gz
RH
84 94 98 96 97 96 94 95 94 94 93 93 92 88 88 93 96 94 92 89 84 79 76 75 74 72 72
89 100 98 98 96 98 98 97 96 94 95 92 89 86 90 95 96 94 92 92 87 81 77 76 74 73 73
98 99 98 99 100 99 98 97 97 95 94 94 91 90 94 97 96 95 94 91 87 85 82 78 75 73 71
96 99 99 99 99 99 99 99 98 99 98 96 95 96 97 97 96 96 93 90 86 82 80 78 74 69 67
96 99 99 99 99 99 98 98 99 99 99 99 98 98 98 96 96 96 94 89 85 80 76 74 71 67 64
91 91 90 98 98 99 99 99 99 98 99 99 98 98 98 96 94 93 91 88 84 78 74 72 71 66 65
87 85 93 90 93 99 99 98 96 97 97 98 99 99 95 92 92 92 90 87 83 79 76 73 70 66 68
68 74 82 84 89 93 96 94 98 99 96 98 99 98 98 95 94 92 90 87 84 81 77 74 71 68 74
70 71 71 78 78 92 98 100 99 99 98 98 100 99 99 100 97 91 90 88 86 82 78 74 71 76 78
66 69 68 70 76 82 95 99 98 100 98 99 99 99 100 99 100 97 95 91 88 82 77 74 75 92 93
68 71 72 72 74 82 87 97 100 99 96 96 100 100 100 99 100 98 97 96 93 86 77 75 78 83 93
78 81 81 83 79 81 83 92 93 98 96 94 100 97 100 99 98 99 98 96 95 93 87 78 77 76 68
81 84 87 88 89 93 96 99 99 99 99 96 99 100 99 98 98 98 98 98 95 93 90 90 90 92 89
82 84 80 85 91 93 99 95 99 99 99 100 100 100 100 99 95 98 94 99 97 94 93 91 93 89 90
77 79 83 87 90 97 98 98 99 99 99 99 100 99 100 100 100 94 96 98 94 98 94 95 92 89 91
82 84 91 96 93 96 99 98 98 98 99 99 98 99 100 100 98 96 96 97 97 97 91 94 94 87 81
87 87 90 97 97 97 98 98 98 98 99 97 98 99 98 97 98 92 96 97 98 98 92 89 91 88 75

GFSFLT2_sfc_rhum_114.txt.gz
RH
90 96 99 98 99 98 98 97 97 96 95 96 96 95 92 91 91 91 92 93 94 90 84 82 78 76 74
90 92 96 97 96 98 98 98 97 97 96 95 94 94 92 91 91 92 95 94 91 91 89 82 78 76 74
94 94 96 99 99 99 99 98 98 99 98 97 96 96 95 94 91 93 95 94 94 94 91 86 81 77 76
91 92 99 98 99 99 99 99 98 99 98 97 94 96 96 94 93 94 96 96 95 92 91 88 85 80 76
90 87 88 92 97 98 99 97 98 99 98 97 97 96 95 95 94 98 97 96 95 92 89 85 84 78 73
85 86 85 91 91 94 97 100 99 97 99 98 99 99 99 98 97 97 97 96 95 92 89 84 79 75 72
83 79 82 74 83 90 92 98 98 95 99 99 100 99 99 99 98 97 97 96 93 91 88 84 79 76 72
77 79 77 74 77 81 87 87 91 98 99 100 99 99 99 99 97 97 96 94 92 88 85 83 81 76 71
59 61 63 65 68 77 91 95 92 98 99 100 99 100 100 100 98 96 94 93 90 88 86 83 81 75 74
68 68 67 72 69 80 91 98 95 96 96 100 99 99 100 99 99 98 96 93 91 88 85 84 82 85 95
82 80 77 83 85 85 90 88 92 89 89 100 100 100 100 99 99 99 97 97 95 91 86 85 82 86 95
92 91 93 91 90 88 85 89 90 91 87 96 100 99 100 100 99 99 99 97 96 97 94 84 80 83 80
88 92 94 93 92 90 85 82 80 92 93 94 100 100 99 99 98 99 98 99 97 98 97 96 93 91 90
85 87 90 92 91 86 88 94 90 88 86 98 100 100 100 98 97 99 96 100 98 97 96 95 93 90 88
87 87 84 82 83 83 85 92 96 92 97 97 99 98 98 100 100 95 96 98 96 97 97 98 96 92 88
90 93 92 91 89 86 95 90 95 89 97 98 99 99 100 99 97 98 96 96 97 97 93 97 98 96 89
89 96 91 92 87 88 89 91 95 96 95 99 99 98 98 98 99 96 97 97 98 98 96 93 94 97 94

GFSFLT2_sfc_rhum_120.txt.gz
RH
85 81 83 84 86 87 88 90 90 96 97 95 94 94 94 95 92 96 98 95 93 85 81 80 85 92 90
82 87 84 86 87 83 88 86 91 88 92 94 98 98 97 95 95 97 99 99 98 97 92 83 89 92 91
91 87 88 86 88 87 83 85 78 84 84 91 93 97 99 99 99 99 99 99 99 98 97 95 93 93 93
91 91 89 86 86 86 84 80 83 69 90 92 92 95 96 96 99 100 100 100 99 98 97 97 97 95 93
90 90 88 86 88 87 87 84 80 94 87 87 90 89 91 93 98 99 99 99 99 98 97 96 97 95 93
91 88 83 86 85 88 90 92 91 88 83 80 75 85 89 91 95 97 98 98 98 98 96 96 96 97 96
82 84 85 78 84 86 88 92 92 82 87 92 83 89 84 88 92 95 97 98 98 98 98 97 97 97 96
81 82 84 82 85 82 86 89 84 82 86 93 88 88 83 89 88 93 95 97 98 98 98 98 98 98 97
68 71 68 61 67 81 93 94 91 87 81 89 95 91 91 91 91 88 94 97 98 98 98 98 97 97 97
89 86 72 79 69 86 97 96 88 92 91 93 88 96 98 95 95 94 94 96 99 98 97 97 97 98 98
93 89 84 87 89 91 92 98 97 94 82 87 92 92 94 90 94 86 94 95 98 99 98 97 96 94 98
94 91 92 93 93 93 93 95 95 91 83 90 97 91 89 89 89 86 86 89 96 99 99 97 96 93 88
90 91 96 94 93 97 92 93 93 91 84 89 92 87 88 94 93 86 88 94 98 100 100 98 98 97 99
93 94 92 98 96 94 95 93 94 87 86 89 91 92 95 93 98 94 86 90 94 98 99 98 97 95 95
95 87 85 90 90 91 96 94 96 93 86 86 88 89 87 90 95 97 94 87 80 93 100 99 98 97 96
95 95 95 95 93 90 95 98 96 90 86 82 82 92 87 87 88 97 93 92 85 89 95 99 98 98 96
94 95 97 97 93 96 95 95 92 84 86 86 90 95 96 93 80 88 96 90 83 87 92 98 99 98 97

GFSFLT2_sfc_rhum_123.txt.gz
RH
86 80 79 84 80 79 86 82 88 79 78 81 92 94 96 96 96 96 95 94 93 92 87 84 89 92 91
85 91 89 83 84 83 76 70 79 68 66 86 89 92 93 96 98 97 98 96 94 95 93 89 90 90 89
98 95 94 92 85 84 78 76 68 65 59 81 84 83 84 90 93 97 99 98 97 98 98 95 94 94 89
96 95 94 89 91 89 86 81 80 61 75 66 64 66 66 80 89 96 99 99 99 98 99 100 99 98 94
92 93 91 85 91 88 90 85 79 88 82 76 79 79 76 72 82 89 94 96 98 99 99 99 99 99 98
90 91 88 87 88 88 90 92 91 85 86 86 82 83 82 85 82 88 91 93 95 97 99 99 99 99 98
90 90 89 84 89 94 93 93 91 83 86 88 82 86 77 78 77 81 81 85 90 94 97 99 98 98 98
83 85 89 85 90 86 90 94 92 84 85 94 80 93 83 78 68 85 87 91 94 96 97 98 98 98 98
70 69 70 71 66 87 93 99 91 82 85 91 90 81 77 81 94 74 76 76 82 90 96 98 98 99 98
93 88 84 80 69 85 96 97 98 96 88 93 88 95 93 90 85 76 81 73 76 76 84 97 99 99 99
96 95 93 88 87 88 89 98 99 96 84 92 98 88 90 91 86 79 84 86 82 79 73 87 98 97 99
94 92 92 90 92 94 91 95 95 94 88 92 94 94 94 92 88 80 80 80 86 93 93 92 98 97 94
93 93 95 95 93 97 94 93 94 92 84 88 95 92 95 96 94 90 85 84 84 90 93 91 97 99 100
96 97 98 98 96 97 99 93 97 92 87 89 91 94 94 95 94 91 88 93 90 84 88 88 91 99 97
95 89 82 81 87 97 97 95 95 89 90 91 87 87 90 94 96 85 88 87 85 91 93 91 89 97 98
94 96 94 94 93 93 89 92 94 87 92 89 94 89 84 84 82 90 84 83 86 86 90 91 88 90 98
96 97 95 96 93 94 93 94 91 86 89 83 92 96 95 94 79 66 93 87 89 93 86 88 91 88 98